[[{"header":{"parameterUnit":"m.s-1","parameterCategory":1,"la1":30.2991,"la2":30.254,"lo1":-89.0895,"lo2":-89.0444,"dy":0.0017,"dx":0.0017,"nx":28,"ny":28,"refTime":"2023-08-16T09:00:00:Z","depth":0,"parameterNumber":2,"parameterNumberName":"U-component_of_WINDS"},"data":[0,0,0,0,0,0,0,0,0,0,0,0,0,0,0,0,0,0,0,0,0,0,0,0,0,0,0,0,0,0,0,0,0,0,0,0,0,0,0,0,0,0,0,0,0,0,0,0,0,0,0,0,0,0,0,0,0,0,0.449,0.4491,0,0.4579,0.458,0.4581,0.4602,0.4601,0.46,0.46,0.4695,0.4698,0.4701,0,0,0,0,0,0,0,0,0,0,0,0,0,0.4341,0.4343,0.449,0.4491,0.4492,0.4579,0.458,0.4581,0.4602,0.4601,0.46,0.4599,0.4694,0.4698,0.4701,0,0,0,0,0,0,0,0,0,0,0,0,0,0.4415,0.4344,0.449,0.4513,0.4516,0.4579,0.458,0.4582,0.4602,0.4601,0.46,0.4599,0.4693,0.4697,0.4702,0.475,0,0,0.4716,0.4718,0,0,0,0,0,0,0,0,0.4411,0.4421,0.4508,0.4511,0.4515,0.4578,0.4563,0.4638,0.4602,0.4569,0.46,0.4599,0.4657,0.4665,0.4684,0.4754,0.4758,0.4717,0.4719,0.4721,0.4723,0,0,0,0,0,0,0,0.4406,0.4417,0.4525,0.4509,0.4513,0.452,0.4529,0.4577,0.4618,0.4572,0.4574,0.4584,0.4659,0.4679,0.4686,0.476,0.4716,0.4721,0.4723,0.4725,0.4875,0.4876,0,0,0,0,0,0,0.4396,0.4413,0.4523,0.4528,0.4459,0.4523,0.4534,0.4559,0.4617,0.4625,0.4584,0.4584,0.4671,0.468,0.4689,0.475,0.4721,0.4726,0.4728,0.4874,0.4875,0.4876,0,0,0,0,0,0,0.4393,0.4406,0.4519,0.4471,0.4486,0.4527,0.4555,0.4561,0.4581,0.4626,0.4634,0.4597,0.4671,0.4683,0.4734,0.4753,0.4728,0.4732,0.4872,0.4874,0.4876,0.4871,0,0,0,0,0,0,0.4389,0.4405,0.4422,0.4471,0.4488,0.4561,0.4556,0.4563,0.4589,0.459,0.4641,0.4648,0.4671,0.4727,0.4739,0.4759,0.4736,0.4871,0.4873,0.4875,0.487,0.4872,0.4875,0,0,0,0,0,0.4383,0.4418,0.4423,0.4436,0.4511,0.4562,0.4572,0.4597,0.459,0.4609,0.4638,0.4647,0.4749,0.4732,0.4746,0.4768,0.487,0.4872,0.4875,0.4868,0.4872,0.4874,0,0,0,0,0,0,0.4372,0.4425,0.4431,0.4483,0.4518,0.4566,0.459,0.46,0.4638,0.4638,0.4667,0.4679,0.4729,0.4754,0.4734,0.4818,0.4809,0.4815,0.48,0.4803,0.4806,0.4799,0.474,0,0,0,0,0,0.4375,0.4412,0.4456,0.4498,0.4515,0.4549,0.4573,0.4588,0.4626,0.4642,0.4675,0.4712,0.4753,0.4779,0.4819,0.4873,0.4885,0.4895,0.4897,0.4899,0.4904,0.4934,0.494,0.4885,0.4885,0.4885,0,0,0.4383,0.4417,0.4438,0.4496,0.4525,0.4563,0.4562,0.4602,0.4631,0.4648,0.4699,0.4724,0.4768,0.4821,0.4846,0.4843,0.4921,0.4902,0.4903,0.4907,0.4938,0.4943,0.4947,0.4887,0.4886,0.4886,0,0,0.4417,0.4445,0.4483,0.4512,0.4555,0.4578,0.4587,0.4633,0.4651,0.4701,0.4715,0.4751,0.482,0.4851,0.4876,0.492,0.493,0.4933,0.4946,0.4976,0.498,0.4984,0.5001,0.5007,0.4937,0.4937,0.4937,0,0.4422,0.4478,0.4502,0.4541,0.4567,0.4583,0.4622,0.4649,0.4704,0.4722,0.4717,0.4804,0.4835,0.4896,0.4906,0.4926,0.4938,0.4928,0.4977,0.4982,0.4986,0.5002,0.5008,0.4937,0.4937,0.4937,0.4937,0,0.4482,0.4521,0.4546,0.4598,0.4626,0.4665,0.4695,0.4722,0.4735,0.4758,0.481,0.4847,0.4895,0.4911,0.4924,0.4973,0.497,0.4971,0.4964,0.4991,0.5007,0.5013,0.4937,0.4937,0.4937,0.4937,0,0,0.4512,0.4575,0.4584,0.4608,0.4657,0.4688,0.4728,0.4773,0.4796,0.4833,0.4868,0.4926,0.4927,0.4955,0.4972,0.4998,0.5032,0.4996,0.4997,0.5002,0.5089,0.5089,0.5096,0.5038,0.5039,0.504,0.5086,0,0.4553,0.4624,0.4646,0.4706,0.4743,0.4758,0.4793,0.4827,0.485,0.4886,0.4911,0.4952,0.495,0.4967,0.4993,0.5022,0.505,0.5019,0.5072,0.5074,0.5062,0.5104,0.5104,0.5145,0.5092,0.5093,0.5094,0,0.461,0.4646,0.4709,0.4754,0.477,0.4801,0.4845,0.4878,0.4917,0.4932,0.4963,0.4978,0.5022,0.501,0.5071,0.505,0.5073,0.509,0.5092,0.5099,0.5086,0.5113,0.5159,0.5165,0.5104,0.5103,0.5102,0,0.4626,0.4692,0.4738,0.4758,0.481,0.4832,0.4855,0.4893,0.4919,0.4958,0.4975,0.5018,0.5042,0.5076,0.5102,0.5092,0.5161,0.5152,0.5176,0.5176,0.5191,0.519,0.5242,0.5204,0.5204,0.5204,0.5204,0,0.467,0.4708,0.4746,0.4775,0.4819,0.4844,0.4887,0.4911,0.4945,0.4979,0.4995,0.5027,0.506,0.5097,0.5118,0.5165,0.5176,0.519,0.5196,0.5189,0.5188,0.5206,0.5204,0.5206,0.5205,0.5205,0.5205,0,0.4697,0.4724,0.4775,0.482,0.4833,0.4863,0.4902,0.4931,0.4954,0.4997,0.5009,0.5046,0.509,0.5119,0.5176,0.519,0.5242,0.5246,0.5228,0.5231,0.5254,0.5251,0.532,0.5331,0.5284,0.5285,0.5285,0,0.4723,0.4753,0.4801,0.4824,0.4847,0.4885,0.4911,0.4937,0.4964,0.5011,0.5035,0.5079,0.5117,0.5187,0.5219,0.5262,0.5269,0.529,0.5275,0.5268,0.527,0.5268,0.5272,0.5292,0.5293,0.5293,0.5293,0,0.4768,0.4779,0.4816,0.4858,0.4888,0.4922,0.4957,0.4975,0.5007,0.5037,0.5081,0.511,0.5167,0.5212,0.5258,0.5283,0.5294,0.5297,0.5305,0.53,0.5289,0.5296,0.5236,0.5296,0.5296,0.5296,0.5295,0.5295,0.4796,0.4823,0.4861,0.4902,0.493,0.4961,0.4991,0.5017,0.5054,0.5102,0.5115,0.5162,0.5201,0.5264,0.529,0.5327,0.5325,0.5337,0.534,0.5342,0.5343,0.5281,0.5336,0.5336,0.5336,0.5336,0.5336,0,0.4842,0.4867,0.4904,0.4951,0.4983,0.4988,0.5027,0.5053,0.5094,0.5129,0.5165,0.5216,0.5259,0.5294,0.5339,0.5363,0.5369,0.5374,0.5373,0.5379,0.5342,0.5331,0.5368,0.5368,0.5368,0.5368,0.5368,0.5368,0.487,0.4917,0.4933,0.4994,0.5019,0.5063,0.5085,0.5114,0.5142,0.5199,0.5234,0.5256,0.5292,0.5339,0.5379,0.5389,0.5405,0.5409,0.542,0.5385,0.5381,0.5378,0.5368,0.5412,0.5412,0.5454,0.5454,0.5454]},{"header":{"parameterUnit":"m.s-1","parameterCategory":1,"la1":30.2991,"la2":30.254,"lo1":-89.0895,"lo2":-89.0444,"dy":0.0017,"dx":0.0017,"nx":28,"ny":28,"refTime":"2023-08-16T09:00:00:Z","depth":0,"parameterNumber":3,"parameterNumberName":"V-component_of_WINDS"},"data":[0,0,0,0,0,0,0,0,0,0,0,0,0,0,0,0,0,0,0,0,0,0,0,0,0,0,0,0,0,0,0,0,0,0,0,0,0,0,0,0,0,0,0,0,0,0,0,0,0,0,0,0,0,0,0,0,0,0,3.9021,3.9021,0,3.9028,3.9028,3.9028,3.9045,3.9045,3.9045,3.9046,3.905,3.905,3.9049,0,0,0,0,0,0,0,0,0,0,0,0,0,3.9019,3.9019,3.9021,3.9021,3.9021,3.9028,3.9028,3.9028,3.9045,3.9045,3.9045,3.9046,3.905,3.905,3.9049,0,0,0,0,0,0,0,0,0,0,0,0,0,3.9022,3.9019,3.9021,3.903,3.9031,3.9028,3.9028,3.9028,3.9044,3.9045,3.9046,3.9046,3.905,3.905,3.9049,3.9037,0,0,3.9048,3.9048,0,0,0,0,0,0,0,0,3.9022,3.9022,3.9028,3.9029,3.903,3.9036,3.9029,3.9031,3.9044,3.9039,3.9046,3.9046,3.9045,3.9045,3.9045,3.9037,3.9037,3.9048,3.9048,3.9048,3.9048,0,0,0,0,0,0,0,3.9022,3.9022,3.9023,3.9029,3.903,3.9033,3.9034,3.9029,3.9039,3.904,3.9041,3.9042,3.9045,3.9045,3.9045,3.9037,3.9048,3.9048,3.9048,3.9048,3.902,3.9019,0,0,0,0,0,0,3.9021,3.9022,3.9023,3.9024,3.9028,3.9033,3.9034,3.9033,3.9039,3.904,3.9041,3.9042,3.9045,3.9045,3.9045,3.9031,3.9048,3.9048,3.9048,3.902,3.902,3.9019,0,0,0,0,0,0,3.902,3.9021,3.9023,3.9023,3.9024,3.9032,3.9032,3.9033,3.9033,3.904,3.9042,3.904,3.9046,3.9046,3.9039,3.9031,3.9048,3.9047,3.9021,3.902,3.9019,3.9002,0,0,0,0,0,0,3.902,3.902,3.9016,3.9023,3.9024,3.9017,3.9031,3.9033,3.9033,3.9035,3.9039,3.904,3.9046,3.9039,3.9039,3.9031,3.9047,3.9022,3.9021,3.902,3.9003,3.9001,3.8999,0,0,0,0,0,3.902,3.901,3.9016,3.9016,3.9018,3.9017,3.9017,3.9025,3.9032,3.9028,3.9032,3.904,3.9033,3.9039,3.9038,3.903,3.9022,3.9021,3.902,3.9005,3.9001,3.8999,0,0,0,0,0,0,3.9001,3.9011,3.9017,3.901,3.9012,3.9019,3.9014,3.9021,3.9021,3.9023,3.9032,3.9033,3.9025,3.9027,3.9034,3.9019,3.9029,3.9027,3.9017,3.9014,3.9012,3.9011,3.9047,0,0,0,0,0,3.8996,3.8995,3.9003,3.8995,3.8996,3.9005,3.9004,3.9011,3.9013,3.9014,3.9018,3.902,3.9018,3.9016,3.9015,3.9004,3.9005,3.8999,3.8996,3.8994,3.8993,3.8987,3.8984,3.9015,3.9015,3.9015,0,0,3.8985,3.8991,3.8989,3.8992,3.8994,3.8992,3.9006,3.9002,3.9,3.9013,3.9008,3.9011,3.9013,3.9005,3.9001,3.9006,3.8985,3.8993,3.8991,3.899,3.8986,3.8983,3.898,3.9014,3.9014,3.9014,0,0,3.8964,3.8969,3.8963,3.8966,3.897,3.8976,3.8975,3.8981,3.8984,3.8979,3.8989,3.8986,3.8983,3.8984,3.8985,3.8966,3.8973,3.8965,3.8952,3.8947,3.8944,3.8942,3.8936,3.8933,3.8963,3.8963,3.8963,0,3.895,3.8948,3.8958,3.8955,3.8956,3.8969,3.8963,3.8965,3.8968,3.8968,3.8974,3.8971,3.8973,3.8965,3.8961,3.8961,3.8959,3.8964,3.8944,3.8942,3.894,3.8934,3.8931,3.8962,3.8963,3.8963,3.8963,0,3.893,3.8928,3.8923,3.8927,3.8928,3.8923,3.8932,3.8931,3.8937,3.8943,3.8937,3.8941,3.8941,3.8939,3.8945,3.8932,3.8935,3.8943,3.8953,3.8936,3.893,3.8928,3.8961,3.8961,3.8962,3.8962,0,0,3.8896,3.8908,3.8906,3.8908,3.8915,3.8913,3.8909,3.891,3.8909,3.8911,3.8907,3.8905,3.8912,3.8912,3.8918,3.8914,3.8899,3.8922,3.8922,3.8917,3.8885,3.8879,3.8876,3.8904,3.8903,3.8903,3.8885,0,3.8877,3.8871,3.8881,3.8872,3.8871,3.8884,3.888,3.8884,3.8889,3.8887,3.8892,3.8891,3.89,3.8901,3.8897,3.8901,3.8892,3.8903,3.89,3.8899,3.8898,3.8873,3.8867,3.8849,3.8882,3.8882,3.8882,0,3.8853,3.8855,3.8847,3.8855,3.8855,3.8852,3.8854,3.8853,3.8857,3.8861,3.8862,3.887,3.8865,3.8876,3.887,3.8877,3.8877,3.8879,3.8878,3.8878,3.8889,3.8872,3.8844,3.8841,3.8878,3.8879,3.8879,0,3.8829,3.883,3.8826,3.8827,3.8837,3.8834,3.8838,3.8842,3.8843,3.8844,3.8845,3.8845,3.8845,3.8845,3.8853,3.886,3.8846,3.8857,3.8849,3.8849,3.8845,3.8845,3.8816,3.8845,3.8845,3.8845,3.8845,0,3.8806,3.88,3.8815,3.8812,3.8807,3.8818,3.8812,3.8816,3.8821,3.8819,3.883,3.8827,3.8838,3.8836,3.8842,3.8836,3.8836,3.8839,3.884,3.8838,3.8837,3.8837,3.8838,3.8844,3.8844,3.8845,3.8845,0,3.8778,3.8788,3.8784,3.8793,3.8796,3.8791,3.8799,3.8796,3.8803,3.88,3.88,3.8809,3.8808,3.8816,3.8816,3.882,3.8811,3.8815,3.881,3.8811,3.8802,3.8803,3.8772,3.8769,3.88,3.8799,3.8799,0,3.8762,3.8758,3.8768,3.8768,3.8772,3.8771,3.8772,3.8783,3.8784,3.8789,3.8785,3.8786,3.8786,3.8784,3.879,3.879,3.8794,3.8783,3.8794,3.8791,3.8794,3.8794,3.8793,3.8781,3.878,3.878,3.878,0,3.8733,3.8739,3.874,3.8743,3.8744,3.8747,3.875,3.875,3.8762,3.8761,3.8761,3.8762,3.8763,3.8763,3.8765,3.8767,3.8775,3.8776,3.8774,3.8771,3.8769,3.877,3.8804,3.8777,3.8777,3.8777,3.8777,3.8778,3.8711,3.8708,3.8715,3.8716,3.8721,3.8724,3.8722,3.8729,3.8729,3.8732,3.8738,3.8737,3.8742,3.8745,3.8747,3.8746,3.8751,3.8748,3.8747,3.8746,3.8745,3.877,3.8746,3.8746,3.8746,3.8746,3.8747,0,3.8682,3.8688,3.8689,3.8694,3.8695,3.8704,3.8709,3.8709,3.8708,3.8712,3.8713,3.8713,3.8714,3.872,3.8721,3.8719,3.8723,3.8719,3.8719,3.8719,3.874,3.8742,3.8716,3.8716,3.8716,3.8716,3.8716,3.8716,3.8668,3.8664,3.8671,3.867,3.8675,3.8675,3.8677,3.8679,3.8683,3.8683,3.8684,3.8689,3.8694,3.8696,3.8696,3.8698,3.8698,3.8693,3.8696,3.8715,3.8718,3.8721,3.8722,3.8692,3.8692,3.8675,3.8675,3.8675]}]]